Station Historical Data
Daily Summary for October 25, 2017 Units:  Metric    English   Both
« Previous Day
Next Day »
Daily Weekly Monthly Yearly Custom
  High: Low: Average:
Temperature: 15.6 °C 4.5 °C 8.9 °C
Dew Point: 5.7 °C 0.6 °C 3.6 °C
Humidity: 92% 45% 72%
Wind Speed: 8.2km/h 0km/h 0.8km/h
Wind Gust: 9.7km/h - -
Wind- - West
Pressure: 1017.2 hPa 1013.1 hPa -
Precipitation: 0 mm    
Historical Graphs
 
 
Tabular Data for October 25, 2017
Time Temperature Dew Point Pressure Wind Wind Speed Wind Gust Humidity Rainfall Rate (Hourly) Conditions
00:04 8.4 °C 5.4 °C 1016.5 hPa Calm     81% 0 mm BKN
00:09 8.4 °C 5.3 °C 1016.5 hPa Calm     81% 0 mm BKN
00:15 8.4 °C 5.3 °C 1016.5 hPa Calm     81% 0 mm BKN
00:20 8.4 °C 5.1 °C 1016.5 hPa Calm     80% 0 mm BKN
00:25 8.4 °C 5.1 °C 1016.5 hPa Calm     80% 0 mm BKN
00:30 8.3 °C 5.1 °C 1016.5 hPa Calm     80% 0 mm BKN
00:35 8.3 °C 5.1 °C 1016.5 hPa Calm     80% 0 mm BKN
00:40 8.2 °C 5 °C 1016.5 hPa Calm     80% 0 mm BKN
00:45 8.2 °C 5.2 °C 1016.5 hPa Calm     81% 0 mm BKN
00:50 8.2 °C 5.1 °C 1016.5 hPa Calm     81% 0 mm BKN
00:55 8.1 °C 5 °C 1016.5 hPa Calm     81% 0 mm BKN
01:00 8 °C 4.9 °C 1016.5 hPa Calm     81% 0 mm BKN
01:05 7.9 °C 5 °C 1016.5 hPa Calm     82% 0 mm CLR
01:10 7.8 °C 4.7 °C 1016.5 hPa Calm     81% 0 mm CLR
01:15 7.8 °C 5.1 °C 1016.5 hPa Calm     83% 0 mm CLR
01:20 7.7 °C 5 °C 1016.5 hPa Calm     83% 0 mm CLR
01:25 7.6 °C 4.9 °C 1016.5 hPa Calm     83% 0 mm CLR
01:30 7.6 °C 5 °C 1016.5 hPa Calm     84% 0 mm CLR
01:35 7.5 °C 4.9 °C 1016.5 hPa Calm   1.6 km/h 84% 0 mm CLR
01:40 7.4 °C 4.9 °C 1016.5 hPa Calm     84% 0 mm CLR
01:45 7.4 °C 5 °C 1016.5 hPa Calm     85% 0 mm CLR
01:50 7.3 °C 4.8 °C 1016.5 hPa Calm     84% 0 mm CLR
01:55 7.3 °C 4.9 °C 1016.5 hPa Calm     85% 0 mm CLR
02:00 7.2 °C 4.8 °C 1016.5 hPa Calm     85% 0 mm CLR
02:05 7.1 °C 4.8 °C 1016.5 hPa Calm     85% 0 mm CLR
02:10 7.1 °C 4.9 °C 1016.5 hPa Calm     86% 0 mm CLR
02:15 7 °C 4.8 °C 1016.5 hPa Calm     86% 0 mm CLR
02:20 6.9 °C 4.8 °C 1016.5 hPa Calm     86% 0 mm CLR
02:25 6.9 °C 4.8 °C 1016.5 hPa Calm     86% 0 mm CLR
02:30 6.9 °C 4.7 °C 1016.5 hPa Calm     86% 0 mm CLR
02:35 6.8 °C 4.8 °C 1016.5 hPa Calm     87% 0 mm CLR
02:40 6.8 °C 4.8 °C 1016.5 hPa Calm     87% 0 mm CLR
02:45 6.7 °C 4.7 °C 1016.1 hPa Calm     87% 0 mm CLR
02:50 6.7 °C 4.7 °C 1016.1 hPa Calm     87% 0 mm CLR
02:55 6.7 °C 4.7 °C 1016.1 hPa Calm     87% 0 mm CLR
03:00 6.6 °C 4.6 °C 1016.1 hPa Calm     87% 0 mm CLR
03:05 6.6 °C 4.6 °C 1015.8 hPa Calm     87% 0 mm FEW
03:10 6.5 °C 4.5 °C 1015.8 hPa Calm     87% 0 mm FEW
03:15 6.5 °C 4.5 °C 1015.8 hPa Calm     87% 0 mm FEW
03:20 6.5 °C 4.5 °C 1015.8 hPa Calm     87% 0 mm FEW
03:25 6.4 °C 4.4 °C 1015.8 hPa Calm     87% 0 mm FEW
03:30 6.4 °C 4.4 °C 1015.8 hPa Calm     87% 0 mm FEW
03:35 6.4 °C 4.4 °C 1015.8 hPa Calm     87% 0 mm FEW
03:40 6.4 °C 4.4 °C 1015.8 hPa Calm   1.6 km/h 87% 0 mm FEW
03:45 6.4 °C 4.4 °C 1015.8 hPa Calm     87% 0 mm FEW
03:50 6.4 °C 4.4 °C 1015.8 hPa Calm     87% 0 mm FEW
03:55 6.4 °C 4.4 °C 1015.8 hPa Calm     87% 0 mm FEW
04:00 6.4 °C 4.4 °C 1015.8 hPa Calm   1.6 km/h 87% 0 mm FEW
04:05 6.4 °C 4.4 °C 1015.8 hPa Calm     87% 0 mm CLR
04:10 6.4 °C 4.3 °C 1015.8 hPa Calm     86% 0 mm CLR
04:15 6.4 °C 4.4 °C 1015.8 hPa Calm     87% 0 mm CLR
04:20 6.3 °C 4.3 °C 1015.8 hPa Calm     87% 0 mm CLR
04:25 6.3 °C 4.3 °C 1015.8 hPa Calm     87% 0 mm CLR
04:30 6.2 °C 4.2 °C 1015.8 hPa Calm     87% 0 mm CLR
04:35 6.1 °C 4.1 °C 1015.8 hPa Calm     87% 0 mm CLR
04:40 6 °C 4 °C 1015.8 hPa Calm     87% 0 mm CLR
04:45 5.9 °C 3.9 °C 1015.5 hPa Calm     87% 0 mm CLR
04:50 5.9 °C 4.1 °C 1015.5 hPa Calm     88% 0 mm CLR
04:55 5.9 °C 4.1 °C 1015.5 hPa Calm     88% 0 mm CLR
05:00 5.8 °C 4 °C 1015.5 hPa Calm     88% 0 mm CLR
05:05 5.8 °C 3.9 °C 1015.5 hPa Calm     88% 0 mm CLR
05:09 5.7 °C 3.9 °C 1015.5 hPa Calm     88% 0 mm CLR
05:15 5.7 °C 3.8 °C 1015.5 hPa Calm     88% 0 mm CLR
05:20 5.6 °C 3.8 °C 1015.5 hPa Calm     88% 0 mm CLR
05:25 5.6 °C 3.7 °C 1015.8 hPa Calm     88% 0 mm CLR
05:30 5.5 °C 3.7 °C 1015.5 hPa Calm     88% 0 mm CLR
05:35 5.4 °C 3.6 °C 1015.5 hPa Calm     88% 0 mm CLR
05:40 5.4 °C 3.7 °C 1015.5 hPa Calm     89% 0 mm CLR
05:45 5.4 °C 3.7 °C 1015.8 hPa Calm     89% 0 mm CLR
05:50 5.4 °C 3.7 °C 1015.8 hPa Calm     89% 0 mm CLR
05:55 5.3 °C 3.7 °C 1015.8 hPa Calm     89% 0 mm CLR
06:00 5.3 °C 3.7 °C 1015.8 hPa Calm     89% 0 mm CLR
06:05 5.3 °C 3.7 °C 1015.8 hPa Calm   1.6 km/h 89% 0 mm CLR
06:10 5.4 °C 3.7 °C 1015.8 hPa Calm     89% 0 mm CLR
06:15 5.4 °C 3.6 °C 1015.8 hPa Calm     88% 0 mm CLR
06:20 5.3 °C 3.5 °C 1015.8 hPa Calm     88% 0 mm CLR
06:25 5.3 °C 3.5 °C 1015.8 hPa Calm     88% 0 mm CLR
06:30 5.3 °C 3.4 °C 1015.8 hPa Calm     88% 0 mm CLR
06:35 5.2 °C 3.4 °C 1016.1 hPa Calm     88% 0 mm CLR
06:40 5.2 °C 3.5 °C 1016.1 hPa Calm     89% 0 mm CLR
06:45 5.1 °C 3.4 °C 1016.1 hPa Calm     89% 0 mm CLR
06:50 5.1 °C 3.4 °C 1016.1 hPa Calm     89% 0 mm CLR
06:55 5.1 °C 3.4 °C 1015.8 hPa Calm     89% 0 mm CLR
07:00 5 °C 3.3 °C 1016.1 hPa Calm     89% 0 mm CLR
07:05 4.9 °C 3.3 °C 1016.1 hPa Calm     89% 0 mm CLR
07:10 4.9 °C 3.3 °C 1016.1 hPa Calm     89% 0 mm CLR
07:15 4.9 °C 3.2 °C 1016.1 hPa Calm     89% 0 mm CLR
07:20 4.8 °C 3.2 °C 1016.1 hPa Calm     89% 0 mm CLR
07:25 4.8 °C 3.1 °C 1015.8 hPa Calm     89% 0 mm CLR
07:30 4.7 °C 3.1 °C 1015.8 hPa Calm     89% 0 mm CLR
07:35 4.7 °C 3.2 °C 1015.8 hPa Calm     90% 0 mm CLR
07:40 4.7 °C 3.2 °C 1015.8 hPa Calm     90% 0 mm CLR
07:45 4.6 °C 3.1 °C 1015.8 hPa Calm     90% 0 mm CLR
07:50 4.6 °C 3.1 °C 1015.8 hPa Calm     90% 0 mm CLR
07:55 4.5 °C 3 °C 1015.8 hPa Calm     90% 0 mm CLR
08:00 4.5 °C 3 °C 1016.1 hPa Calm     90% 0 mm CLR
08:05 4.5 °C 3 °C 1016.1 hPa Calm     90% 0 mm CLR
08:10 4.5 °C 3 °C 1016.1 hPa Calm     90% 0 mm CLR
08:15 4.6 °C 3.1 °C 1016.1 hPa Calm     90% 0 mm CLR
08:20 4.6 °C 3.3 °C 1016.1 hPa Calm     91% 0 mm CLR
08:25 4.7 °C 3.3 °C 1016.1 hPa Calm     91% 0 mm CLR
08:30 4.7 °C 3.4 °C 1016.1 hPa Calm     91% 0 mm CLR
08:35 4.8 °C 3.5 °C 1016.1 hPa Calm     91% 0 mm CLR
08:40 4.9 °C 3.6 °C 1016.1 hPa Calm     91% 0 mm CLR
08:45 5.1 °C 3.7 °C 1016.5 hPa Calm     91% 0 mm CLR
08:50 5.3 °C 4.1 °C 1016.5 hPa Calm     92% 0 mm CLR
08:55 5.4 °C 4.1 °C 1016.5 hPa Calm     91% 0 mm CLR
09:00 5.6 °C 4.3 °C 1016.8 hPa Calm     91% 0 mm CLR
09:05 5.9 °C 4.4 °C 1016.5 hPa Calm     90% 0 mm FEW
09:10 6.2 °C 4.6 °C 1016.8 hPa Calm     89% 0 mm FEW
09:15 6.5 °C 4.5 °C 1016.8 hPa Calm     87% 0 mm FEW
09:20 6.7 °C 4.6 °C 1016.8 hPa Calm   1.6 km/h 86% 0 mm FEW
09:25 7 °C 4.5 °C 1016.8 hPa Calm   1.6 km/h 84% 0 mm FEW
09:30 7.2 °C 4.5 °C 1016.8 hPa Calm   1.6 km/h 83% 0 mm FEW
09:35 7.4 °C 4.7 °C 1016.8 hPa Calm   3.2 km/h 83% 0 mm FEW
09:40 7.6 °C 4.7 °C 1016.8 hPa Calm     82% 0 mm FEW
09:45 7.8 °C 4.7 °C 1016.5 hPa Calm   3.2 km/h 81% 0 mm FEW
09:50 7.9 °C 4.7 °C 1016.5 hPa Calm   3.2 km/h 80% 0 mm FEW
09:55 8.1 °C 4.8 °C 1016.8 hPa Calm   1.6 km/h 80% 0 mm FEW
10:00 8.3 °C 4.9 °C 1016.8 hPa WSW 1.9 km/h 1.9 km/h 79% 0 mm FEW
10:05 8.5 °C 4.7 °C 1016.8 hPa Calm   3.2 km/h 77% 0 mm FEW
10:10 8.6 °C 5 °C 1016.8 hPa Calm   4.8 km/h 78% 0 mm FEW
10:15 8.8 °C 5.2 °C 1016.8 hPa Calm   1.6 km/h 78% 0 mm FEW
10:20 9.1 °C 5.3 °C 1016.8 hPa NW 1.9 km/h 1.9 km/h 77% 0 mm FEW
10:25 9.2 °C 5.2 °C 1016.8 hPa Calm   1.6 km/h 76% 0 mm FEW
10:30 9.4 °C 5 °C 1016.8 hPa Calm   4.8 km/h 74% 0 mm FEW
10:31 9.4 °C 5.1 °C 1016.8 hPa SW 5.6 km/h 5.6 km/h 74% 0 mm FEW
10:36 9.6 °C 4.9 °C 1016.8 hPa SSE 3.7 km/h 3.7 km/h 73% 0 mm FEW
10:41 9.9 °C 5.4 °C 1016.8 hPa WSW 1.9 km/h 1.9 km/h 74% 0 mm FEW
10:46 10.3 °C 5.3 °C 1017.2 hPa NNW 1.9 km/h 1.9 km/h 71% 0 mm FEW
10:51 10.7 °C 5.3 °C 1017.2 hPa NNW 3.7 km/h 3.7 km/h 69% 0 mm FEW
10:56 10.9 °C 5.3 °C 1016.8 hPa West 1.9 km/h 1.9 km/h 68% 0 mm FEW
11:01 11.4 °C 5.7 °C 1016.8 hPa NNW 3.2 km/h 3.2 km/h 68% 0 mm FEW
11:06 11.8 °C 4.9 °C 1016.8 hPa NW 1.9 km/h   63% 0 mm FEW
11:12 12.1 °C 4.8 °C 1016.8 hPa WNW 1.9 km/h 2.6 km/h 61% 0 mm FEW
11:17 12.1 °C 4.3 °C 1016.8 hPa SW 7.4 km/h 7.4 km/h 59% 0 mm FEW
11:22 12.2 °C 4.9 °C 1016.8 hPa SSW 3.7 km/h 3.7 km/h 61% 0 mm FEW
11:27 12.4 °C 5.1 °C 1016.8 hPa WSW 5.6 km/h 5.6 km/h 61% 0 mm FEW
11:32 12.4 °C 4.9 °C 1016.8 hPa North 3.7 km/h 3.7 km/h 60% 0 mm FEW
11:37 12.5 °C 4.4 °C 1016.5 hPa West 1.9 km/h 1.9 km/h 58% 0 mm FEW
11:42 12.8 °C 5.3 °C 1016.5 hPa WSW 1.9 km/h 1.9 km/h 60% 0 mm FEW
11:47 12.8 °C 4.8 °C 1016.5 hPa North 3.7 km/h 3.7 km/h 58% 0 mm FEW
11:52 12.7 °C 4.2 °C 1016.5 hPa NNW 5.6 km/h 5.6 km/h 56% 0 mm FEW
11:58 12.8 °C 4.9 °C 1016.5 hPa WNW 1.9 km/h 2.3 km/h 59% 0 mm FEW
12:03 12.8 °C 4.3 °C 1016.1 hPa West 3.7 km/h 3.7 km/h 56% 0 mm SCT
12:08 12.7 °C 4.2 °C 1016.1 hPa NNW 1.9 km/h 1.9 km/h 56% 0 mm SCT
12:13 12.7 °C 4.1 °C 1016.1 hPa West 1.9 km/h 1.9 km/h 56% 0 mm SCT
12:18 12.7 °C 3.8 °C 1016.1 hPa SW 3.2 km/h 3.2 km/h 55% 0 mm SCT
12:23 12.6 °C 4.1 °C 1016.1 hPa NW 3.7 km/h 3.7 km/h 56% 0 mm SCT
12:28 12.7 °C 4.1 °C 1016.1 hPa WSW 7.4 km/h 7.4 km/h 56% 0 mm SCT
12:33 12.7 °C 3.4 °C 1016.1 hPa NNW 7.4 km/h 7.4 km/h 53% 0 mm SCT
12:38 12.7 °C 3.9 °C 1016.1 hPa NW 3.7 km/h 3.7 km/h 55% 0 mm SCT
12:44 12.8 °C 4.3 °C 1015.8 hPa WNW 5.6 km/h 5.6 km/h 56% 0 mm SCT
12:49 13 °C 4.2 °C 1015.8 hPa NW 3.7 km/h 3.7 km/h 55% 0 mm SCT
12:54 13 °C 4.4 °C 1015.8 hPa NW 3.7 km/h 3.7 km/h 56% 0 mm SCT
13:04 13.3 °C 4.7 °C 1015.8 hPa WNW 1.9 km/h 1.9 km/h 56% 0 mm SCT
13:09 13.5 °C 3.8 °C 1015.5 hPa West 3.2 km/h 3.2 km/h 52% 0 mm SCT
13:14 13.6 °C 3.9 °C 1015.5 hPa SSW 8.2 km/h 8.2 km/h 52% 0 mm SCT
13:19 13.4 °C 3.5 °C 1015.1 hPa WNW 1.6 km/h 1.6 km/h 51% 0 mm SCT
13:24 13.6 °C 3.3 °C 1015.1 hPa SSW 1.9 km/h 1.9 km/h 50% 0 mm SCT
13:30 13.4 °C 3.8 °C 1015.1 hPa Calm   8 km/h 52% 0 mm SCT
13:35 13.6 °C 3.4 °C 1014.8 hPa Calm   4.8 km/h 50% 0 mm SCT
13:40 13.7 °C 2.8 °C 1014.8 hPa Calm   3.2 km/h 48% 0 mm SCT
13:45 13.7 °C 2.8 °C 1014.8 hPa WSW 3.2 km/h 8 km/h 48% 0 mm SCT
13:50 13.9 °C 4.2 °C 1014.4 hPa Calm   3.2 km/h 52% 0 mm SCT
13:55 14.4 °C 4.1 °C 1014.4 hPa Calm   3.2 km/h 50% 0 mm SCT
14:00 14.8 °C 3.9 °C 1014.4 hPa WNW 1.6 km/h 8 km/h 48% 0 mm SCT
14:05 14.8 °C 3.3 °C 1014.4 hPa West 7.4 km/h 7.4 km/h 46% 0 mm SCT
14:10 14.9 °C 3.7 °C 1014.4 hPa Calm   3.2 km/h 47% 0 mm SCT
14:15 15.3 °C 3.7 °C 1014.1 hPa WNW 1.6 km/h 8 km/h 46% 0 mm SCT
14:20 15.6 °C 4.3 °C 1014.1 hPa WNW 1.6 km/h 3.2 km/h 47% 0 mm SCT
14:25 15.5 °C 3.9 °C 1014.1 hPa West 1.6 km/h 4.8 km/h 46% 0 mm SCT
14:30 15.4 °C 3.8 °C 1013.8 hPa NW 3.7 km/h 3.7 km/h 46% 0 mm SCT
14:35 15.3 °C 4 °C 1013.8 hPa WNW 3.7 km/h 3.7 km/h 47% 0 mm SCT
14:40 15.3 °C 3.4 °C 1013.8 hPa WNW 1.9 km/h 1.9 km/h 45% 0 mm SCT
14:45 15.1 °C 3.3 °C 1013.8 hPa Calm   4.8 km/h 45% 0 mm SCT
14:50 15 °C 3.2 °C 1013.8 hPa West 1.6 km/h 9.7 km/h 45% 0 mm SCT
14:55 15 °C 4.1 °C 1013.4 hPa NNE 5 km/h 5 km/h 48% 0 mm SCT
15:00 14.9 °C 3.4 °C 1013.4 hPa Calm   4.8 km/h 46% 0 mm SCT
15:05 14.9 °C 3.9 °C 1013.4 hPa WNW 1.6 km/h 8 km/h 48% 0 mm SCT
15:10 14.6 °C 3.1 °C 1013.4 hPa SSW 3.2 km/h 3.2 km/h 46% 0 mm SCT
15:15 14.4 °C 3 °C 1013.8 hPa SW 1.6 km/h 4.8 km/h 46% 0 mm SCT
15:20 14.4 °C 2.9 °C 1013.8 hPa West 1.6 km/h 9.7 km/h 46% 0 mm SCT
15:25 14.2 °C 3.1 °C 1013.4 hPa Calm   8 km/h 47% 0 mm SCT
15:30 14.3 °C 2.8 °C 1013.4 hPa West 3.7 km/h 3.7 km/h 46% 0 mm SCT
15:35 14.3 °C 3.2 °C 1013.4 hPa Calm   1.6 km/h 47% 0 mm SCT
15:40 14.3 °C 3.4 °C 1013.4 hPa Calm   1.6 km/h 48% 0 mm SCT
15:45 14.2 °C 2.7 °C 1013.4 hPa WNW 1.6 km/h 8 km/h 46% 0 mm SCT
15:50 14.2 °C 2.7 °C 1013.4 hPa Calm   3.2 km/h 46% 0 mm SCT
15:55 14.1 °C 2.9 °C 1013.4 hPa Calm   3.2 km/h 47% 0 mm SCT
16:00 14 °C 2.8 °C 1013.4 hPa West 1.6 km/h 4.8 km/h 47% 0 mm SCT
16:05 13.7 °C 2.3 °C 1013.4 hPa WNW 1.6 km/h 4.8 km/h 46% 0 mm FEW
16:10 13.6 °C 2.7 °C 1013.4 hPa Calm   3.2 km/h 48% 0 mm FEW
16:15 13.6 °C 2.7 °C 1013.4 hPa Calm   8 km/h 48% 0 mm FEW
16:20 13.6 °C 2.8 °C 1013.1 hPa Calm   4.8 km/h 48% 0 mm FEW
16:21 13.6 °C 2.8 °C 1013.1 hPa WNW 1.9 km/h 1.9 km/h 48% 0 mm FEW
16:26 13.6 °C 2.5 °C 1013.1 hPa ESE 3.7 km/h 3.7 km/h 47% 0 mm FEW
16:31 13.6 °C 2.5 °C 1013.1 hPa WNW 3.7 km/h 3.7 km/h 47% 0 mm FEW
16:36 13.7 °C 3.4 °C 1013.1 hPa SSW 3.2 km/h 3.2 km/h 50% 0 mm FEW
16:41 13.6 °C 2.8 °C 1013.1 hPa WNW 1.9 km/h 1.9 km/h 48% 0 mm FEW
16:46 13.6 °C 2.5 °C 1013.1 hPa WNW 1.6 km/h 1.6 km/h 47% 0 mm FEW
16:51 13.6 °C 2.8 °C 1013.1 hPa West 1.9 km/h 1.9 km/h 48% 0 mm FEW
16:57 13.6 °C 2.4 °C 1013.1 hPa NW 3.7 km/h 3.7 km/h 47% 0 mm FEW
17:02 13.5 °C 2.1 °C 1013.1 hPa NW 3.7 km/h 3.7 km/h 46% 0 mm FEW
17:07 13.4 °C 2.6 °C 1013.1 hPa Calm     48% 0 mm FEW
17:12 13.3 °C 2.8 °C 1013.1 hPa West 1.9 km/h 1.9 km/h 49% 0 mm FEW
17:17 13.2 °C 2.2 °C 1013.1 hPa NNW 5.6 km/h 5.6 km/h 47% 0 mm FEW
17:22 13.2 °C 2.1 °C 1013.1 hPa WNW 3.7 km/h 3.7 km/h 47% 0 mm FEW
17:27 13 °C 1.9 °C 1013.1 hPa SW 6.6 km/h 6.6 km/h 47% 0 mm FEW
17:32 12.9 °C 2.4 °C 1013.1 hPa West 3.7 km/h 3.7 km/h 49% 0 mm FEW
17:37 12.8 °C 2.1 °C 1013.1 hPa West 1.9 km/h 1.9 km/h 48% 0 mm FEW
17:43 12.7 °C 2.3 °C 1013.1 hPa WNW 1.9 km/h 1.9 km/h 49% 0 mm FEW
17:48 12.6 °C 2.2 °C 1013.4 hPa West 1.9 km/h   49% 0 mm FEW
17:53 12.5 °C 1.5 °C 1013.1 hPa West 1.9 km/h 1.9 km/h 47% 0 mm FEW
17:58 12.5 °C 1.5 °C 1013.4 hPa Calm     47% 0 mm FEW
18:03 12.4 °C 1.7 °C 1013.4 hPa NW 1.9 km/h 1.9 km/h 48% 0 mm FEW
18:08 12.3 °C 1.3 °C 1013.4 hPa NW 1.9 km/h 1.9 km/h 47% 0 mm FEW
18:13 12.1 °C 2 °C 1013.4 hPa WSW 3.2 km/h 3.2 km/h 50% 0 mm FEW
18:18 11.9 °C 0.9 °C 1013.4 hPa WNW 1.9 km/h 1.9 km/h 47% 0 mm FEW
18:23 11.8 °C 0.6 °C 1013.4 hPa NW 3.7 km/h 3.7 km/h 46% 0 mm FEW
18:28 11.8 °C 0.6 °C 1013.8 hPa WNW 1.9 km/h 1.9 km/h 46% 0 mm FEW
18:33 11.7 °C 1.6 °C 1013.8 hPa West 1.6 km/h   50% 0 mm FEW
18:38 11.4 °C 1.1 °C 1013.8 hPa Calm     49% 0 mm FEW
18:43 11.3 °C 1.8 °C 1013.8 hPa Calm     52% 0 mm FEW
18:48 11.2 °C 1.9 °C 1014.1 hPa Calm     53% 0 mm FEW
18:54 10.9 °C 2.2 °C 1014.1 hPa Calm     55% 0 mm FEW
18:59 10.7 °C 2.2 °C 1013.8 hPa Calm     56% 0 mm FEW
19:04 10.4 °C 2.5 °C 1013.8 hPa Calm     58% 0 mm FEW
19:09 10.2 °C 2.8 °C 1013.8 hPa Calm     60% 0 mm FEW
19:14 10 °C 2.6 °C 1013.8 hPa Calm     60% 0 mm FEW
19:19 9.8 °C 2.8 °C 1013.8 hPa Calm     62% 0 mm FEW
19:24 9.6 °C 2.4 °C 1013.8 hPa Calm     61% 0 mm FEW
19:29 9.4 °C 2.7 °C 1013.8 hPa Calm     63% 0 mm FEW
19:34 9.2 °C 2.9 °C 1014.1 hPa Calm     65% 0 mm FEW
19:39 9.1 °C 3.1 °C 1014.1 hPa Calm     66% 0 mm FEW
19:44 8.9 °C 3.1 °C 1014.1 hPa Calm     67% 0 mm FEW
19:50 8.7 °C 3.1 °C 1014.1 hPa Calm     68% 0 mm FEW
19:55 8.6 °C 3.2 °C 1014.1 hPa Calm     69% 0 mm FEW
20:00 8.4 °C 3.3 °C 1014.1 hPa Calm     70% 0 mm FEW
20:05 8.3 °C 3 °C 1014.4 hPa Calm     69% 0 mm CLR
20:10 8.2 °C 3.1 °C 1014.4 hPa Calm     70% 0 mm CLR
20:15 8.1 °C 2.9 °C 1014.4 hPa Calm     70% 0 mm CLR
20:20 8 °C 2.9 °C 1014.4 hPa Calm     70% 0 mm CLR
20:25 7.9 °C 3 °C 1014.4 hPa Calm     71% 0 mm CLR
20:30 7.8 °C 3.3 °C 1014.4 hPa Calm     73% 0 mm CLR
20:35 7.7 °C 3.2 °C 1014.4 hPa Calm     73% 0 mm CLR
20:40 7.7 °C 3.2 °C 1014.4 hPa Calm     73% 0 mm CLR
20:45 7.6 °C 3.1 °C 1014.4 hPa Calm     73% 0 mm CLR
20:50 7.6 °C 2.8 °C 1014.4 hPa Calm     72% 0 mm CLR
20:55 7.5 °C 2.9 °C 1014.8 hPa Calm     73% 0 mm CLR
21:00 7.4 °C 2.9 °C 1014.8 hPa Calm     73% 0 mm CLR
21:05 7.4 °C 2.8 °C 1014.4 hPa Calm     73% 0 mm FEW
21:10 7.3 °C 2.9 °C 1014.4 hPa Calm     74% 0 mm FEW
21:15 7.2 °C 3.1 °C 1014.8 hPa Calm     75% 0 mm FEW
21:20 7.2 °C 3.2 °C 1014.8 hPa Calm     76% 0 mm FEW
21:25 7.1 °C 3.3 °C 1014.4 hPa Calm     77% 0 mm FEW
21:30 7 °C 3.1 °C 1014.4 hPa Calm     76% 0 mm FEW
21:35 6.9 °C 2.9 °C 1014.4 hPa Calm     76% 0 mm FEW
21:40 6.8 °C 2.9 °C 1014.8 hPa Calm     76% 0 mm FEW
21:45 6.8 °C 3 °C 1014.8 hPa Calm     77% 0 mm FEW
21:50 6.7 °C 2.9 °C 1015.1 hPa Calm     77% 0 mm FEW
21:55 6.7 °C 2.9 °C 1015.1 hPa Calm     77% 0 mm FEW
22:00 6.5 °C 2.8 °C 1015.1 hPa Calm     77% 0 mm FEW
22:05 6.4 °C 2.7 °C 1015.1 hPa Calm     77% 0 mm CLR
22:10 6.4 °C 2.8 °C 1015.1 hPa Calm     78% 0 mm CLR
22:16 6.3 °C 2.8 °C 1015.1 hPa Calm     78% 0 mm CLR
22:21 6.2 °C 2.7 °C 1015.1 hPa Calm     78% 0 mm CLR
22:26 6.2 °C 2.4 °C 1015.1 hPa Calm     77% 0 mm CLR
22:31 6.1 °C 2.5 °C 1015.1 hPa Calm     78% 0 mm CLR
22:36 6 °C 2.4 °C 1015.5 hPa Calm     78% 0 mm CLR
22:41 5.9 °C 2.4 °C 1015.5 hPa Calm     78% 0 mm CLR
22:46 5.9 °C 2.5 °C 1015.5 hPa Calm     79% 0 mm CLR
22:51 5.8 °C 2.4 °C 1015.5 hPa Calm     79% 0 mm CLR
22:56 5.8 °C 2.6 °C 1015.5 hPa Calm     80% 0 mm CLR
23:02 5.7 °C 2.4 °C 1015.8 hPa Calm     79% 0 mm CLR
23:07 5.6 °C 2.3 °C 1015.8 hPa Calm     79% 0 mm CLR
23:12 5.6 °C 2.4 °C 1015.8 hPa Calm     80% 0 mm CLR
23:17 5.5 °C 2.5 °C 1015.8 hPa Calm     81% 0 mm CLR
23:22 5.4 °C 2.4 °C 1015.8 hPa Calm     81% 0 mm CLR
23:27 5.4 °C 2.6 °C 1015.8 hPa Calm     82% 0 mm CLR
23:32 5.4 °C 2.6 °C 1015.8 hPa Calm     82% 0 mm CLR
23:37 5.4 °C 2.6 °C 1015.8 hPa Calm     82% 0 mm CLR
23:43 5.3 °C 2.7 °C 1015.8 hPa Calm     83% 0 mm CLR
23:48 5.3 °C 2.6 °C 1015.8 hPa Calm     83% 0 mm CLR
23:53 5.3 °C 2.6 °C 1015.8 hPa Calm     83% 0 mm CLR
23:58 5.2 °C 2.6 °C 1015.8 hPa Calm     83% 0 mm CLR
Piedmont Bend
Compliments of Weather Underground - 4 mb